This is the latest recevied weather packets stored in our database for station/object SR8NGO-1. If no packets are shown the sender has not sent any weather packets the latest 10 day(s).
| Time | Temp. | Humidity | Pressure | Rain* | Wind** | Luminosity | Snow |
|---|---|---|---|---|---|---|---|
| 1777461398 | 13.89° C | 65% | 1013.9 hPa | 137.92 mm | - | - | - |
| 1777461158 | 15° C | 68% | 1013.9 hPa | 137.92 mm | - | - | - |
| 1777460918 | 12.78° C | 69% | 1013.9 hPa | 137.92 mm | - | - | - |
| 1777460678 | 12.22° C | 68% | 1013.9 hPa | 137.92 mm | - | - | - |
| 1777460438 | 13.89° C | 68% | 1013.8 hPa | 137.92 mm | - | - | - |
| 1777460198 | 12.78° C | 70% | 1013.9 hPa | 137.92 mm | - | - | - |
| 1777459958 | 12.78° C | 69% | 1013.8 hPa | 137.92 mm | - | - | - |
| 1777459718 | 12.22° C | 68% | 1014 hPa | 137.92 mm | - | - | - |
| 1777459478 | 7.22° C | 65% | 1014 hPa | 137.92 mm | - | - | - |
| 1777459238 | 11.11° C | 69% | 1013.9 hPa | 137.92 mm | - | - | - |
| 1777458998 | 12.22° C | 68% | 1013.8 hPa | 137.92 mm | - | - | - |
| 1777458758 | 16.11° C | 69% | 1013.9 hPa | 137.92 mm | - | - | - |
| 1777458518 | 12.78° C | 70% | 1014 hPa | 137.92 mm | - | - | - |
| 1777458278 | 7.22° C | 71% | 1013.9 hPa | 137.92 mm | - | - | - |
| 1777458038 | 12.78° C | 73% | 1013.9 hPa | 137.92 mm | - | - | - |
| 1777457798 | 12.22° C | 72% | 1013.9 hPa | 137.92 mm | - | - | - |
| 1777457558 | 12.78° C | 73% | 1013.8 hPa | 137.92 mm | - | - | - |
| 1777457318 | 12.78° C | 72% | 1013.8 hPa | 137.92 mm | - | - | - |
| 1777457078 | 12.22° C | 71% | 1013.9 hPa | 137.92 mm | - | - | - |
| 1777456838 | 11.11° C | 71% | 1013.9 hPa | 137.92 mm | - | - | - |
| 1777456598 | 11.11° C | 71% | 1013.9 hPa | 137.92 mm | - | - | - |
| 1777456358 | 11.11° C | 69% | 1013.9 hPa | 137.92 mm | - | - | - |
| 1777456118 | 12.78° C | 68% | 1013.9 hPa | 137.92 mm | - | - | - |
| 1777455878 | 11.11° C | 68% | 1013.9 hPa | 137.92 mm | - | - | - |
| 1777455638 | 12.22° C | 70% | 1013.9 hPa | 137.92 mm | - | - | - |
* Rain latest hour (hover to see other rain measurements)
** Current wind speed in m/s (hover to see current wind gust speed)